sat.trackr.live / text

‹ back to catalog

STARLINK-34749

NORAD 65675 · 2025-211Z

PAYLOAD ACTIVE UNKNOWN

§ Identity

Operator
Country
US
Launch date
2025-09-19
Launch site
AFWTR
Launch vehicle
Mass (kg)
RCS (m²)

Purposes: comms

External: N2YO · Heavens-Above · Gunter

§ Orbital elements

Epoch: 2026-05-25T02:15:21.428928Z

Period
95.64 min
Inclination
97.4468°
Eccentricity
0.0002003
Mean motion
15.05658713 rev/d
Perigee alt
548.1 km
Apogee alt
550.9 km
Semi-major
6,927.6 km
B*
1.9268e-4
RAAN
189.0906°
Arg perigee
120.0512°
Mean anomaly
240.0914°
Rev number
3,854

§ Raw data

STARLINK-347491 65675U 25211Z   26145.09399802  .00002723  00000+0  19268-3 0  99902 65675  97.4468 189.0906 0002003 120.0512 240.0914 15.05658713 38549

JSON: /api/v1/satellites/65675 · /tle

For live sub-satellite position, see the globe view (requires WebGL).

§ Visibility from observer

Set your observer location to see the next 7 days of passes ≥ 10°. The values pass through the URL so the page stays shareable.

No JS? Fill the form by hand. The geolocation button needs JavaScript.